Location: Cantaing
(50.1487°N, 3.1675°E)
Time: 09:00:22
(UTC+00:00)

SMAP - Pass Details

Date: 14 January 2026
Orbit: 682 x 683 km, 98.1° (Epoch: 18 February)

Event Time Altitude Azimuth Distance (km) Brightness Sun altitude
Rises 06:01:34 0° 16° (NNE) 3,060 6.4 -15.4°
Reaches altitude 10° 06:03:51 10° 20° (NNE) 2,139 5.7 -15.0°
Maximum altitude 06:08:30 64° 102° (ESE) 760 3.6 -14.3°
Drops below altitude 10° 06:13:06 10° 184° (S) 2,121 5.8 -13.6°
Sets 06:15:21 0° 187° (S) 3,032 6.5 -13.3°
